Regional Weather Roundup
Issued by NWS

Home | Current Version | Previous Version | Text Only | Print | Product List | Glossary Off
Versions: 1 2 3 4 5 6 7 8 9 10 11 12 13 14 15 16 17 18 19 20 21 22 23 24 25 26 27 28 29 30 31 32 33 34 35 36 37 38 39 40 41 42 43 44 45 46 47 48 49 50

325
ASUS43 KBIS 211902
RWRND

NORTH DAKOTA REGIONAL WEATHER ROUNDUP
NATIONAL WEATHER SERVICE BISMARCK ND
100 PM CST SUN JAN 21 2018

NOTE: "FAIR" INDICATES FEW OR NO CLOUDS BELOW 12,000 FEET WITH NO
SIGNIFICANT WEATHER AND/OR OBSTRUCTIONS TO VISIBILITY.


NDZ001>003-009>011-017-212000-
NORTHWEST NORTH DAKOTA

CITY           SKY/WX    TMP DP  RH WIND       PRES   REMARKS
WILLISTON      SUNNY     25  18  74 SW8       30.01F WCI  16
MINOT          SUNNY     30  22  72 SW9       30.00F
MINOT AFB      SUNNY     28  22  75 S7        29.99F
$$

NDZ018>021-031>035-040>046-212000-
SOUTHWEST NORTH DAKOTA

CITY           SKY/WX    TMP DP  RH WIND       PRES   REMARKS
BISMARCK       CLOUDY    24  20  84 CALM      30.05F
DICKINSON      PTSUNNY   31  21  66 W10       29.97F
GARRISON         N/A     23  18  81 CALM      30.02F
HETTINGER ARPT CLOUDY    32  20  61 W5        30.01F
$$

NDZ004>008-012>016-024-026-027-054-212000-
NORTHEAST NORTH DAKOTA

CITY           SKY/WX    TMP DP  RH WIND       PRES   REMARKS
GRAND FORKS    CLOUDY    26  22  84 N7        30.08F WCI  18
GRND FRKS AFB  CLOUDY    26  21  82 N6        30.08F WCI  19
DEVILS LAKE    FOG       22  21  96 S3        30.07F VSB 1/4
$$

NDZ022-023-025-028>030-036>039-047>053-212000-
SOUTHEAST NORTH DAKOTA

CITY           SKY/WX    TMP DP  RH WIND       PRES   REMARKS
FARGO          CLOUDY    25  23  92 N6        30.07F WCI  18
JAMESTOWN      FOG       24  24 100 N6        30.05F VSB 1/2 WCI  17
$$





USA.gov is the U.S. government's official web portal to all federal, state and local government web resources and services.